Torna al catalogo

ORBCOMM FM 108

AttivoComunicazioniLEO
NORAD 41187·PAYLOAD·🇺🇸 United States

Lanciato Dec 22, 2015 da Cape Canaveral Space Force Station

Loading…

Prossimi Passaggi (prossime 24 ore)

TLE

AggiornatoSource: Space-Track

Epoca: Sep 14, 2026, 01:00 UTC

1 41187U 15081J   26257.04197811  .00000450  00000-0  13121-3 0  9999
2 41187  47.0041 122.0563 0002561 253.1822 106.8783 14.58978907573056

Traccia ORBCOMM FM 108 in tempo reale con AllMySat

Download on the App Store